Time,TemperatureF,DewpointF,PressureIn,WindDirection,WindDirectionDegrees,WindSpeedMPH,WindSpeedGustMPH,Humidity,HourlyPrecipIn,Conditions,Clouds,dailyrainin,SoftwareType,DateUTC
2013-06-11 00:00:00,76.2,73.1,30.07,WSW,239,0.0,0.0,90,0.00,,,0.01,Wunderground v.1.15,2013-06-11 04:00:00,
2013-06-11 00:05:00,76.1,73.3,30.07,WSW,239,0.0,0.0,91,0.00,,,0.00,Wunderground v.1.15,2013-06-11 04:05:00,
2013-06-11 00:10:00,76.0,73.2,30.07,WSW,239,0.0,0.0,91,0.00,,,0.00,Wunderground v.1.15,2013-06-11 04:10:00,
2013-06-11 00:15:00,75.9,73.1,30.07,WSW,239,0.0,0.0,91,0.00,,,0.00,Wunderground v.1.15,2013-06-11 04:15:00,
2013-06-11 00:25:00,75.7,72.9,30.07,WSW,239,0.0,0.0,91,0.00,,,0.00,Wunderground v.1.15,2013-06-11 04:25:00,
2013-06-11 00:30:00,75.6,73.1,30.07,WSW,239,0.0,0.0,92,0.00,,,0.00,Wunderground v.1.15,2013-06-11 04:30:00,
2013-06-11 00:35:00,75.4,72.6,30.07,WSW,239,0.0,0.0,91,0.00,,,0.00,Wunderground v.1.15,2013-06-11 04:35:00,
2013-06-11 00:45:00,75.1,72.6,30.07,WSW,239,0.0,0.0,92,0.00,,,0.00,Wunderground v.1.15,2013-06-11 04:45:00,
2013-06-11 00:50:00,75.1,72.6,30.07,WSW,239,0.0,0.0,92,0.00,,,0.00,Wunderground v.1.15,2013-06-11 04:50:00,
2013-06-11 01:00:00,74.9,72.4,30.06,WSW,239,0.0,0.0,92,0.00,,,0.00,Wunderground v.1.15,2013-06-11 05:00:00,
2013-06-11 01:05:00,74.8,72.3,30.06,WSW,239,0.0,0.0,92,0.00,,,0.00,Wunderground v.1.15,2013-06-11 05:05:00,
2013-06-11 01:15:00,74.6,72.4,30.06,WSW,239,0.0,0.0,93,0.00,,,0.00,Wunderground v.1.15,2013-06-11 05:15:00,
2013-06-11 01:20:00,74.5,72.3,30.06,WSW,239,0.0,0.0,93,0.00,,,0.00,Wunderground v.1.15,2013-06-11 05:20:00,
2013-06-11 01:25:00,74.4,72.2,30.06,WSW,239,0.0,0.0,93,0.00,,,0.00,Wunderground v.1.15,2013-06-11 05:25:00,
2013-06-11 01:35:00,74.3,72.1,30.06,WSW,239,0.0,0.0,93,0.00,,,0.00,Wunderground v.1.15,2013-06-11 05:35:00,
2013-06-11 01:40:00,74.2,72.0,30.06,WSW,239,0.0,0.0,93,0.00,,,0.00,Wunderground v.1.15,2013-06-11 05:40:00,
2013-06-11 01:50:00,74.0,72.2,30.06,WSW,239,0.0,0.0,94,0.00,,,0.00,Wunderground v.1.15,2013-06-11 05:50:00,
2013-06-11 01:55:00,74.0,72.2,30.06,WSW,239,0.0,0.0,94,0.00,,,0.00,Wunderground v.1.15,2013-06-11 05:55:00,
2013-06-11 02:05:00,73.8,72.0,30.05,WSW,239,0.0,0.0,94,0.00,,,0.00,Wunderground v.1.15,2013-06-11 06:05:00,
2013-06-11 02:10:00,73.8,72.0,30.06,WSW,239,0.0,0.0,94,0.00,,,0.00,Wunderground v.1.15,2013-06-11 06:10:00,
2013-06-11 02:15:00,73.7,71.9,30.05,WSW,239,0.0,0.0,94,0.00,,,0.00,Wunderground v.1.15,2013-06-11 06:15:00,
2013-06-11 02:25:00,73.6,71.8,30.05,WSW,239,0.0,0.0,94,0.00,,,0.00,Wunderground v.1.15,2013-06-11 06:25:00,
2013-06-11 02:30:00,73.5,71.7,30.05,WSW,239,0.0,0.0,94,0.00,,,0.00,Wunderground v.1.15,2013-06-11 06:30:00,
2013-06-11 02:40:00,73.5,71.7,30.05,WSW,239,0.0,0.0,94,0.00,,,0.00,Wunderground v.1.15,2013-06-11 06:40:00,
2013-06-11 02:45:00,73.4,71.6,30.05,WSW,239,0.0,0.0,94,0.00,,,0.00,Wunderground v.1.15,2013-06-11 06:45:00,
2013-06-11 02:50:00,73.3,71.5,30.05,WSW,239,0.0,0.0,94,0.00,,,0.00,Wunderground v.1.15,2013-06-11 06:50:00,
2013-06-11 03:00:00,73.3,71.5,30.05,WSW,239,0.0,0.0,94,0.00,,,0.00,Wunderground v.1.15,2013-06-11 07:00:00,
2013-06-11 03:05:00,73.3,71.5,30.05,WSW,239,0.0,0.0,94,0.00,,,0.00,Wunderground v.1.15,2013-06-11 07:05:00,
2013-06-11 03:15:00,73.2,71.7,30.04,WSW,239,0.0,0.0,95,0.00,,,0.00,Wunderground v.1.15,2013-06-11 07:15:00,
2013-06-11 03:20:00,73.2,71.7,30.04,WSW,239,0.0,0.0,95,0.00,,,0.00,Wunderground v.1.15,2013-06-11 07:20:00,
2013-06-11 03:25:00,73.1,71.6,30.04,WSW,239,0.0,0.0,95,0.00,,,0.00,Wunderground v.1.15,2013-06-11 07:25:00,
2013-06-11 03:30:00,73.1,71.6,30.04,WSW,239,0.0,0.0,95,0.00,,,0.00,Wunderground v.1.15,2013-06-11 07:30:00,
2013-06-11 03:40:00,73.0,71.5,30.04,WSW,239,0.0,0.0,95,0.00,,,0.00,Wunderground v.1.15,2013-06-11 07:40:00,
2013-06-11 03:45:00,73.0,71.5,30.04,WSW,239,0.0,0.0,95,0.00,,,0.00,Wunderground v.1.15,2013-06-11 07:45:00,
2013-06-11 03:55:00,72.8,71.3,30.04,WSW,239,0.0,0.0,95,0.00,,,0.00,Wunderground v.1.15,2013-06-11 07:55:00,
2013-06-11 04:00:00,72.9,71.4,30.04,WSW,239,0.0,0.0,95,0.00,,,0.00,Wunderground v.1.15,2013-06-11 08:00:00,
2013-06-11 04:10:00,72.9,71.4,30.04,WSW,239,0.0,0.0,95,0.00,,,0.00,Wunderground v.1.15,2013-06-11 08:10:00,
2013-06-11 04:15:00,72.8,71.3,30.04,WSW,239,0.0,0.0,95,0.00,,,0.00,Wunderground v.1.15,2013-06-11 08:15:00,
2013-06-11 04:25:00,72.8,71.3,30.04,WSW,239,0.0,0.0,95,0.00,,,0.00,Wunderground v.1.15,2013-06-11 08:25:00,
2013-06-11 04:30:00,72.8,71.3,30.04,WSW,239,0.0,0.0,95,0.00,,,0.00,Wunderground v.1.15,2013-06-11 08:30:00,
2013-06-11 04:40:00,72.7,71.2,30.05,WSW,239,0.0,0.0,95,0.00,,,0.00,Wunderground v.1.15,2013-06-11 08:40:00,
2013-06-11 04:45:00,72.7,71.2,30.05,WSW,239,0.0,0.0,95,0.00,,,0.00,Wunderground v.1.15,2013-06-11 08:45:00,
2013-06-11 04:55:00,72.6,71.1,30.05,WSW,239,0.0,0.0,95,0.00,,,0.00,Wunderground v.1.15,2013-06-11 08:55:00,
2013-06-11 05:00:00,72.6,71.4,30.05,WSW,239,0.0,0.0,96,0.00,,,0.00,Wunderground v.1.15,2013-06-11 09:00:00,
2013-06-11 05:10:00,72.6,71.4,30.05,WSW,239,0.0,0.0,96,0.00,,,0.00,Wunderground v.1.15,2013-06-11 09:10:00,
2013-06-11 05:20:00,72.6,71.4,30.05,WSW,239,0.0,0.0,96,0.00,,,0.00,Wunderground v.1.15,2013-06-11 09:20:00,
2013-06-11 05:25:00,72.7,71.5,30.05,WSW,239,0.0,0.0,96,0.00,,,0.00,Wunderground v.1.15,2013-06-11 09:25:00,
2013-06-11 05:30:00,72.6,71.4,30.05,WSW,239,0.0,0.0,96,0.00,,,0.00,Wunderground v.1.15,2013-06-11 09:30:00,
2013-06-11 05:40:00,72.6,71.4,30.05,WSW,239,0.0,0.0,96,0.00,,,0.00,Wunderground v.1.15,2013-06-11 09:40:00,
2013-06-11 05:45:00,72.6,71.4,30.05,WSW,239,0.0,0.0,96,0.00,,,0.00,Wunderground v.1.15,2013-06-11 09:45:00,
2013-06-11 05:50:00,72.5,71.3,30.05,WSW,239,0.0,0.0,96,0.00,,,0.00,Wunderground v.1.15,2013-06-11 09:50:00,
2013-06-11 05:55:00,72.5,71.3,30.05,WSW,239,0.0,0.0,96,0.00,,,0.00,Wunderground v.1.15,2013-06-11 09:55:00,
2013-06-11 06:05:00,72.4,71.2,30.05,WSW,239,0.0,0.0,96,0.00,,,0.00,Wunderground v.1.15,2013-06-11 10:05:00,
2013-06-11 06:10:00,72.4,71.2,30.05,WSW,239,0.0,0.0,96,0.00,,,0.00,Wunderground v.1.15,2013-06-11 10:10:00,
2013-06-11 06:20:00,72.4,71.2,30.05,WSW,239,0.0,0.0,96,0.00,,,0.00,Wunderground v.1.15,2013-06-11 10:20:00,
2013-06-11 06:25:00,72.3,71.1,30.05,WSW,239,0.0,0.0,96,0.00,,,0.00,Wunderground v.1.15,2013-06-11 10:25:00,
2013-06-11 06:30:00,72.2,71.0,30.06,WSW,239,0.0,0.0,96,0.00,,,0.00,Wunderground v.1.15,2013-06-11 10:30:00,
2013-06-11 06:40:00,72.1,70.9,30.06,WSW,239,0.0,0.0,96,0.00,,,0.00,Wunderground v.1.15,2013-06-11 10:40:00,
2013-06-11 06:45:00,72.1,70.9,30.06,WSW,239,0.0,0.0,96,0.00,,,0.00,Wunderground v.1.15,2013-06-11 10:45:00,
2013-06-11 06:50:00,72.1,70.9,30.06,WSW,239,0.0,0.0,96,0.00,,,0.00,Wunderground v.1.15,2013-06-11 10:50:00,
2013-06-11 07:00:00,72.2,71.0,30.06,WSW,239,0.0,0.0,96,0.00,,,0.00,Wunderground v.1.15,2013-06-11 11:00:00,
2013-06-11 07:05:00,72.2,71.0,30.06,WSW,238,0.0,0.0,96,0.00,,,0.00,Wunderground v.1.15,2013-06-11 11:05:00,
2013-06-11 07:15:00,72.5,71.6,30.06,WSW,239,0.0,0.0,97,0.00,,,0.00,Wunderground v.1.15,2013-06-11 11:15:00,
2013-06-11 07:20:00,72.7,71.8,30.06,WSW,239,0.0,0.0,97,0.00,,,0.00,Wunderground v.1.15,2013-06-11 11:20:00,
2013-06-11 07:30:00,73.5,72.6,30.06,WSW,238,0.0,0.0,97,0.00,,,0.00,Wunderground v.1.15,2013-06-11 11:30:00,
2013-06-11 07:35:00,74.1,73.2,30.06,WSW,238,0.0,0.0,97,0.00,,,0.00,Wunderground v.1.15,2013-06-11 11:35:00,
2013-06-11 07:40:00,74.9,74.0,30.06,WSW,239,0.0,0.0,97,0.00,,,0.00,Wunderground v.1.15,2013-06-11 11:40:00,
2013-06-11 07:50:00,76.0,74.8,30.06,SW,219,0.0,1.0,96,0.00,,,0.00,Wunderground v.1.15,2013-06-11 11:50:00,
2013-06-11 07:55:00,76.5,75.0,30.07,SW,219,0.0,1.0,95,0.00,,,0.00,Wunderground v.1.15,2013-06-11 11:55:00,
2013-06-11 08:00:00,77.0,75.1,30.07,SE,135,0.0,2.0,94,0.00,,,0.00,Wunderground v.1.15,2013-06-11 12:00:00,
2013-06-11 08:10:00,77.8,75.6,30.07,SE,140,0.0,0.0,93,0.00,,,0.00,Wunderground v.1.15,2013-06-11 12:10:00,
2013-06-11 08:15:00,78.3,75.8,30.07,SW,225,0.0,0.0,92,0.00,,,0.00,Wunderground v.1.15,2013-06-11 12:15:00,
2013-06-11 08:20:00,78.8,75.9,30.07,SW,225,0.0,1.0,91,0.00,,,0.00,Wunderground v.1.15,2013-06-11 12:20:00,
2013-06-11 08:30:00,79.4,76.2,30.07,SW,217,1.0,1.0,90,0.00,,,0.00,Wunderground v.1.15,2013-06-11 12:30:00,
2013-06-11 08:35:00,79.9,76.4,30.07,SSW,211,0.0,3.0,89,0.00,,,0.00,Wunderground v.1.15,2013-06-11 12:35:00,
2013-06-11 08:45:00,81.0,76.4,30.08,SE,131,1.0,3.0,86,0.00,,,0.00,Wunderground v.1.15,2013-06-11 12:45:00,
2013-06-11 08:50:00,81.2,76.6,30.08,SSW,201,1.0,1.0,86,0.00,,,0.00,Wunderground v.1.15,2013-06-11 12:50:00,
2013-06-11 08:55:00,81.5,76.9,30.08,SSW,200,1.0,1.0,86,0.00,,,0.00,Wunderground v.1.15,2013-06-11 12:55:00,
2013-06-11 09:05:00,81.9,76.9,30.08,West,260,1.0,1.0,85,0.00,,,0.00,Wunderground v.1.15,2013-06-11 13:05:00,
2013-06-11 09:10:00,82.2,77.2,30.08,West,259,1.0,1.0,85,0.00,,,0.00,Wunderground v.1.15,2013-06-11 13:10:00,
2013-06-11 09:20:00,83.3,77.2,30.08,SSW,200,1.0,1.0,82,0.00,,,0.00,Wunderground v.1.15,2013-06-11 13:20:00,
2013-06-11 09:25:00,83.5,77.1,30.08,WSW,246,1.0,1.0,81,0.00,,,0.00,Wunderground v.1.15,2013-06-11 13:25:00,
2013-06-11 09:30:00,83.4,77.0,30.08,South,180,1.0,1.0,81,0.00,,,0.00,Wunderground v.1.15,2013-06-11 13:30:00,
2013-06-11 09:40:00,83.9,77.4,30.08,West,260,1.0,1.0,81,0.00,,,0.00,Wunderground v.1.15,2013-06-11 13:40:00,
2013-06-11 09:45:00,83.9,77.1,30.08,South,176,1.0,1.0,80,0.00,,,0.00,Wunderground v.1.15,2013-06-11 13:45:00,
2013-06-11 09:50:00,84.1,77.3,30.08,WSW,244,1.0,1.0,80,0.00,,,0.00,Wunderground v.1.15,2013-06-11 13:50:00,
2013-06-11 10:00:00,84.8,77.6,30.08,SW,234,1.0,3.0,79,0.00,,,0.00,Wunderground v.1.15,2013-06-11 14:00:00,
2013-06-11 10:05:00,85.0,77.4,30.08,WSW,249,2.0,3.0,78,0.00,,,0.00,Wunderground v.1.15,2013-06-11 14:05:00,
2013-06-11 10:15:00,85.3,77.7,30.08,WSW,238,1.0,2.0,78,0.00,,,0.00,Wunderground v.1.15,2013-06-11 14:15:00,
2013-06-11 10:20:00,85.2,77.6,30.08,SW,234,1.0,2.0,78,0.00,,,0.00,Wunderground v.1.15,2013-06-11 14:20:00,
2013-06-11 10:30:00,85.2,77.2,30.08,West,277,1.0,1.0,77,0.00,,,0.00,Wunderground v.1.15,2013-06-11 14:30:00,
2013-06-11 10:35:00,85.4,77.4,30.08,South,182,1.0,1.0,77,0.00,,,0.00,Wunderground v.1.15,2013-06-11 14:35:00,
2013-06-11 10:45:00,85.4,77.4,30.08,West,270,1.0,2.0,77,0.00,,,0.00,Wunderground v.1.15,2013-06-11 14:45:00,
2013-06-11 10:50:00,85.2,77.2,30.08,SW,236,1.0,4.0,77,0.00,,,0.00,Wunderground v.1.15,2013-06-11 14:50:00,
2013-06-11 10:55:00,85.3,77.3,30.08,WNW,289,1.0,4.0,77,0.00,,,0.00,Wunderground v.1.15,2013-06-11 14:55:00,
2013-06-11 11:05:00,85.6,77.2,30.08,West,267,1.0,2.0,76,0.00,,,0.00,Wunderground v.1.15,2013-06-11 15:05:00,
2013-06-11 11:10:00,85.6,77.2,30.08,WSW,246,1.0,2.0,76,0.00,,,0.00,Wunderground v.1.15,2013-06-11 15:10:00,
2013-06-11 11:15:00,86.3,77.4,30.08,WSW,253,1.0,2.0,75,0.00,,,0.00,Wunderground v.1.15,2013-06-11 15:15:00,
2013-06-11 11:25:00,86.6,77.3,30.08,WSW,247,1.0,2.0,74,0.00,,,0.00,Wunderground v.1.15,2013-06-11 15:25:00,
2013-06-11 11:30:00,86.8,77.5,30.08,WSW,242,1.0,1.0,74,0.00,,,0.00,Wunderground v.1.15,2013-06-11 15:30:00,
2013-06-11 11:40:00,87.7,77.5,30.08,WSW,250,2.0,2.0,72,0.00,,,0.00,Wunderground v.1.15,2013-06-11 15:40:00,
2013-06-11 11:45:00,87.8,77.6,30.08,SW,229,2.0,2.0,72,0.00,,,0.00,Wunderground v.1.15,2013-06-11 15:45:00,
2013-06-11 11:55:00,86.8,76.7,30.08,NNW,333,1.0,1.0,72,0.00,,,0.00,Wunderground v.1.15,2013-06-11 15:55:00,
2013-06-11 12:00:00,87.2,77.5,30.07,West,260,1.0,3.0,73,0.00,,,0.00,Wunderground v.1.15,2013-06-11 16:00:00,
2013-06-11 12:10:00,87.5,76.1,30.07,West,279,1.0,1.0,69,0.00,,,0.00,Wunderground v.1.15,2013-06-11 16:10:00,
2013-06-11 12:15:00,87.5,76.5,30.07,WSW,256,1.0,1.0,70,0.00,,,0.00,Wunderground v.1.15,2013-06-11 16:15:00,
2013-06-11 12:20:00,87.6,77.0,30.07,West,276,0.0,0.0,71,0.00,,,0.00,Wunderground v.1.15,2013-06-11 16:20:00,
2013-06-11 12:30:00,88.0,77.0,30.07,WSW,248,0.0,0.0,70,0.00,,,0.00,Wunderground v.1.15,2013-06-11 16:30:00,
2013-06-11 12:40:00,88.7,76.3,30.07,West,279,1.0,2.0,67,0.00,,,0.00,Wunderground v.1.15,2013-06-11 16:40:00,
2013-06-11 12:45:00,89.4,76.5,30.06,West,260,2.0,2.0,66,0.00,,,0.00,Wunderground v.1.15,2013-06-11 16:45:00,
2013-06-11 12:50:00,89.2,76.4,30.06,West,279,1.0,1.0,66,0.00,,,0.00,Wunderground v.1.15,2013-06-11 16:50:00,
2013-06-11 12:55:00,88.5,76.6,30.06,NW,306,1.0,1.0,68,0.00,,,0.00,Wunderground v.1.15,2013-06-11 16:55:00,
2013-06-11 13:05:00,87.8,74.6,30.06,NW,306,0.0,1.0,65,0.00,,,0.00,Wunderground v.1.15,2013-06-11 17:05:00,
2013-06-11 13:10:00,88.4,76.0,30.06,NNW,346,1.0,1.0,67,0.00,,,0.00,Wunderground v.1.15,2013-06-11 17:10:00,
2013-06-11 13:20:00,88.7,76.3,30.05,SW,227,1.0,1.0,67,0.00,,,0.00,Wunderground v.1.15,2013-06-11 17:20:00,
2013-06-11 13:25:00,88.7,75.9,30.05,East,93,1.0,1.0,66,0.00,,,0.00,Wunderground v.1.15,2013-06-11 17:25:00,
2013-06-11 13:35:00,88.6,76.2,30.05,WNW,300,1.0,1.0,67,0.00,,,0.00,Wunderground v.1.15,2013-06-11 17:35:00,
2013-06-11 13:45:00,88.1,76.6,30.04,NNW,339,0.0,2.0,69,0.00,,,0.00,Wunderground v.1.15,2013-06-11 17:45:00,
2013-06-11 13:50:00,88.5,75.7,30.05,NW,309,1.0,1.0,66,0.00,,,0.00,Wunderground v.1.15,2013-06-11 17:50:00,
2013-06-11 14:00:00,89.4,75.1,30.04,West,281,1.0,1.0,63,0.00,,,0.00,Wunderground v.1.15,2013-06-11 18:00:00,
2013-06-11 14:05:00,89.3,76.0,30.04,NW,307,1.0,2.0,65,0.00,,,0.00,Wunderground v.1.15,2013-06-11 18:05:00,
2013-06-11 14:10:00,89.3,75.5,30.03,NNW,337,1.0,2.0,64,0.00,,,0.00,Wunderground v.1.15,2013-06-11 18:10:00,
2013-06-11 14:20:00,88.7,75.0,30.03,West,280,1.0,2.0,64,0.00,,,0.00,Wunderground v.1.15,2013-06-11 18:20:00,
2013-06-11 14:25:00,88.6,75.3,30.03,West,280,0.0,2.0,65,0.00,,,0.00,Wunderground v.1.15,2013-06-11 18:25:00,
2013-06-11 14:35:00,89.5,75.7,30.03,WNW,288,1.0,4.0,64,0.00,,,0.00,Wunderground v.1.15,2013-06-11 18:35:00,
2013-06-11 14:40:00,89.9,75.6,30.03,WNW,284,2.0,2.0,63,0.00,,,0.00,Wunderground v.1.15,2013-06-11 18:40:00,
2013-06-11 14:50:00,89.3,75.5,30.02,West,266,1.0,1.0,64,0.00,,,0.00,Wunderground v.1.15,2013-06-11 18:50:00,
2013-06-11 14:55:00,88.8,73.6,30.02,WNW,298,0.0,1.0,61,0.00,,,0.00,Wunderground v.1.15,2013-06-11 18:55:00,
2013-06-11 15:00:00,88.8,74.6,30.02,West,270,1.0,2.0,63,0.00,,,0.00,Wunderground v.1.15,2013-06-11 19:00:00,
2013-06-11 15:10:00,89.3,74.6,30.01,North,5,1.0,1.0,62,0.00,,,0.00,Wunderground v.1.15,2013-06-11 19:10:00,
2013-06-11 15:20:00,89.0,74.8,30.02,West,281,0.0,0.0,63,0.00,,,0.00,Wunderground v.1.15,2013-06-11 19:20:00,
2013-06-11 15:25:00,88.7,74.0,30.02,South,170,1.0,1.0,62,0.00,,,0.00,Wunderground v.1.15,2013-06-11 19:25:00,
2013-06-11 15:35:00,86.9,74.2,30.05,South,175,2.0,3.0,66,0.00,,,0.00,Wunderground v.1.15,2013-06-11 19:35:00,
2013-06-11 15:40:00,84.6,72.9,30.06,South,182,3.0,5.0,68,0.00,,,0.00,Wunderground v.1.15,2013-06-11 19:40:00,
2013-06-11 15:50:00,80.1,71.1,30.06,South,181,4.0,4.0,74,0.00,,,0.00,Wunderground v.1.15,2013-06-11 19:50:00,
2013-06-11 15:55:00,79.1,70.9,30.06,SE,128,3.0,4.0,76,0.00,,,0.00,Wunderground v.1.15,2013-06-11 19:55:00,
2013-06-11 16:05:00,76.8,69.8,30.08,SSW,198,4.0,4.0,79,0.00,,,0.00,Wunderground v.1.15,2013-06-11 20:05:00,
2013-06-11 16:15:00,74.8,70.3,30.08,ESE,108,3.0,5.0,86,0.00,,,0.00,Wunderground v.1.15,2013-06-11 20:15:00,
2013-06-11 16:20:00,74.3,70.8,30.08,WSW,257,3.0,3.0,89,1.37,,,0.06,Wunderground v.1.15,2013-06-11 20:20:00,
2013-06-11 16:25:00,73.7,70.9,30.08,SE,133,3.0,3.0,91,0.48,,,0.14,Wunderground v.1.15,2013-06-11 20:25:00,
2013-06-11 16:35:00,72.8,70.7,30.08,SE,125,2.0,2.0,93,0.09,,,0.17,Wunderground v.1.15,2013-06-11 20:35:00,
2013-06-11 16:40:00,72.6,70.5,30.07,ESE,109,1.0,1.0,93,0.05,,,0.17,Wunderground v.1.15,2013-06-11 20:40:00,
2013-06-11 16:50:00,72.7,71.2,30.06,SSE,168,0.0,2.0,95,0.00,,,0.17,Wunderground v.1.15,2013-06-11 20:50:00,
2013-06-11 16:55:00,72.6,71.1,30.06,NNE,26,0.0,2.0,95,0.00,,,0.18,Wunderground v.1.15,2013-06-11 20:55:00,
2013-06-11 17:05:00,72.7,71.2,30.06,NE,38,0.0,0.0,95,0.00,,,0.18,Wunderground v.1.15,2013-06-11 21:05:00,
2013-06-11 17:15:00,73.2,72.0,30.06,North,360,0.0,0.0,96,0.00,,,0.18,Wunderground v.1.15,2013-06-11 21:15:00,
2013-06-11 17:20:00,73.2,72.0,30.05,North,360,0.0,0.0,96,0.00,,,0.18,Wunderground v.1.15,2013-06-11 21:20:00,
2013-06-11 17:25:00,73.3,72.1,30.05,NW,313,0.0,0.0,96,0.00,,,0.18,Wunderground v.1.15,2013-06-11 21:25:00,
2013-06-11 17:30:00,73.3,72.1,30.05,NW,313,0.0,0.0,96,0.00,,,0.19,Wunderground v.1.15,2013-06-11 21:30:00,
2013-06-11 17:40:00,73.5,72.3,30.04,NW,313,0.0,0.0,96,0.00,,,0.19,Wunderground v.1.15,2013-06-11 21:40:00,
2013-06-11 17:45:00,73.5,72.3,30.04,NW,313,0.0,0.0,96,0.00,,,0.19,Wunderground v.1.15,2013-06-11 21:45:00,
2013-06-11 17:50:00,73.4,72.2,30.04,SW,229,0.0,0.0,96,0.00,,,0.19,Wunderground v.1.15,2013-06-11 21:50:00,
2013-06-11 18:00:00,73.5,72.3,30.04,SE,130,0.0,0.0,96,0.07,,,0.21,Wunderground v.1.15,2013-06-11 22:00:00,
2013-06-11 18:10:00,73.4,72.2,30.04,SSE,154,0.0,5.0,96,0.05,,,0.21,Wunderground v.1.15,2013-06-11 22:10:00,
2013-06-11 18:15:00,73.3,72.1,30.04,SE,124,1.0,5.0,96,0.04,,,0.21,Wunderground v.1.15,2013-06-11 22:15:00,
2013-06-11 18:25:00,73.4,72.2,30.04,ESE,108,0.0,1.0,96,0.00,,,0.21,Wunderground v.1.15,2013-06-11 22:25:00,
2013-06-11 18:30:00,73.4,72.2,30.04,ESE,108,0.0,0.0,96,0.00,,,0.21,Wunderground v.1.15,2013-06-11 22:30:00,
2013-06-11 18:35:00,73.5,72.6,30.04,ESE,108,0.0,0.0,97,0.00,,,0.21,Wunderground v.1.15,2013-06-11 22:35:00,
2013-06-11 18:45:00,73.7,72.8,30.03,ESE,108,0.0,0.0,97,0.00,,,0.21,Wunderground v.1.15,2013-06-11 22:45:00,
2013-06-11 18:50:00,74.0,73.1,30.02,ESE,108,0.0,0.0,97,0.00,,,0.21,Wunderground v.1.15,2013-06-11 22:50:00,
2013-06-11 19:00:00,74.2,73.3,30.02,ESE,108,0.0,0.0,97,0.00,,,0.21,Wunderground v.1.15,2013-06-11 23:00:00,
2013-06-11 19:05:00,74.5,73.6,30.02,WSW,251,0.0,0.0,97,0.00,,,0.21,Wunderground v.1.15,2013-06-11 23:05:00,
2013-06-11 19:15:00,74.8,73.9,30.03,SSE,150,0.0,0.0,97,0.00,,,0.21,Wunderground v.1.15,2013-06-11 23:15:00,
2013-06-11 19:25:00,74.9,74.0,30.03,SSE,150,0.0,0.0,97,0.00,,,0.21,Wunderground v.1.15,2013-06-11 23:25:00,
2013-06-11 19:30:00,75.0,74.1,30.03,SSE,150,0.0,0.0,97,0.00,,,0.21,Wunderground v.1.15,2013-06-11 23:30:00,
2013-06-11 19:40:00,75.1,73.9,30.03,SSE,150,0.0,0.0,96,0.00,,,0.21,Wunderground v.1.15,2013-06-11 23:40:00,
2013-06-11 19:45:00,75.2,74.0,30.02,SSE,150,0.0,0.0,96,0.00,,,0.21,Wunderground v.1.15,2013-06-11 23:45:00,
2013-06-11 19:50:00,75.2,74.0,30.02,SSE,150,0.0,0.0,96,0.00,,,0.21,Wunderground v.1.15,2013-06-11 23:50:00,
2013-06-11 20:00:00,75.3,74.1,30.03,SSE,150,0.0,0.0,96,0.00,,,0.21,Wunderground v.1.15,2013-06-12 00:00:00,
2013-06-11 20:10:00,75.4,74.2,30.02,SSE,150,0.0,0.0,96,0.00,,,0.21,Wunderground v.1.15,2013-06-12 00:10:00,
2013-06-11 20:15:00,75.3,74.1,30.03,SSE,150,0.0,0.0,96,0.00,,,0.21,Wunderground v.1.15,2013-06-12 00:15:00,
2013-06-11 20:25:00,75.2,74.3,30.03,SSE,150,0.0,0.0,97,0.00,,,0.21,Wunderground v.1.15,2013-06-12 00:25:00,
2013-06-11 20:30:00,75.2,74.3,30.03,SSE,150,0.0,0.0,97,0.00,,,0.21,Wunderground v.1.15,2013-06-12 00:30:00,
2013-06-11 20:35:00,75.1,74.2,30.02,SSE,150,0.0,0.0,97,0.00,,,0.21,Wunderground v.1.15,2013-06-12 00:35:00,
2013-06-11 20:45:00,75.1,74.2,30.01,SSE,150,0.0,0.0,97,0.00,,,0.21,Wunderground v.1.15,2013-06-12 00:45:00,
2013-06-11 20:50:00,75.0,74.1,30.02,SSE,150,0.0,0.0,97,0.00,,,0.21,Wunderground v.1.15,2013-06-12 00:50:00,
2013-06-11 21:00:00,74.9,74.0,30.02,SSE,150,0.0,0.0,97,0.00,,,0.21,Wunderground v.1.15,2013-06-12 01:00:00,
2013-06-11 21:05:00,74.7,73.8,30.02,SSE,150,0.0,0.0,97,0.00,,,0.21,Wunderground v.1.15,2013-06-12 01:05:00,
2013-06-11 21:15:00,74.5,73.6,30.02,SSE,150,0.0,0.0,97,0.00,,,0.21,Wunderground v.1.15,2013-06-12 01:15:00,
2013-06-11 21:20:00,74.4,73.5,30.03,SSE,150,0.0,0.0,97,0.00,,,0.21,Wunderground v.1.15,2013-06-12 01:20:00,
2013-06-11 21:30:00,74.1,73.2,30.02,SSE,150,0.0,0.0,97,0.00,,,0.21,Wunderground v.1.15,2013-06-12 01:30:00,
2013-06-11 21:35:00,74.0,73.1,30.02,SSE,150,0.0,0.0,97,0.00,,,0.21,Wunderground v.1.15,2013-06-12 01:35:00,
2013-06-11 21:45:00,73.9,73.0,30.02,SSE,150,0.0,0.0,97,0.00,,,0.21,Wunderground v.1.15,2013-06-12 01:45:00,
2013-06-11 21:50:00,73.7,72.8,30.02,SSE,150,0.0,0.0,97,0.00,,,0.21,Wunderground v.1.15,2013-06-12 01:50:00,
2013-06-11 21:55:00,73.6,72.7,30.03,SSE,150,0.0,0.0,97,0.00,,,0.21,Wunderground v.1.15,2013-06-12 01:55:00,
2013-06-11 22:05:00,73.4,72.5,30.03,SSE,150,0.0,0.0,97,0.00,,,0.21,Wunderground v.1.15,2013-06-12 02:05:00,
2013-06-11 22:10:00,73.4,72.5,30.02,SSE,150,0.0,0.0,97,0.00,,,0.21,Wunderground v.1.15,2013-06-12 02:10:00,
2013-06-11 22:15:00,73.3,72.4,30.03,SSE,150,0.0,0.0,97,0.00,,,0.21,Wunderground v.1.15,2013-06-12 02:15:00,
2013-06-11 22:25:00,73.2,72.3,30.03,SSE,150,0.0,0.0,97,0.00,,,0.21,Wunderground v.1.15,2013-06-12 02:25:00,
2013-06-11 22:30:00,73.1,72.2,30.03,SSE,150,0.0,0.0,97,0.00,,,0.21,Wunderground v.1.15,2013-06-12 02:30:00,
2013-06-11 22:40:00,73.1,72.2,30.03,SSE,150,0.0,0.0,97,0.00,,,0.21,Wunderground v.1.15,2013-06-12 02:40:00,
2013-06-11 22:45:00,73.0,72.1,30.03,SSE,150,0.0,0.0,97,0.00,,,0.21,Wunderground v.1.15,2013-06-12 02:45:00,
2013-06-11 22:55:00,72.9,72.0,30.03,SSE,150,0.0,0.0,97,0.00,,,0.21,Wunderground v.1.15,2013-06-12 02:55:00,
2013-06-11 23:00:00,72.8,71.9,30.03,SSE,150,0.0,0.0,97,0.00,,,0.21,Wunderground v.1.15,2013-06-12 03:00:00,
2013-06-11 23:05:00,72.7,71.8,30.03,SSE,150,0.0,0.0,97,0.00,,,0.21,Wunderground v.1.15,2013-06-12 03:05:00,
2013-06-11 23:15:00,72.8,71.9,30.04,SSE,150,0.0,0.0,97,0.00,,,0.21,Wunderground v.1.15,2013-06-12 03:15:00,
2013-06-11 23:20:00,72.7,71.8,30.04,SSE,150,0.0,0.0,97,0.00,,,0.21,Wunderground v.1.15,2013-06-12 03:20:00,
2013-06-11 23:25:00,72.6,71.7,30.04,SSE,150,0.0,0.0,97,0.00,,,0.21,Wunderground v.1.15,2013-06-12 03:25:00,
2013-06-11 23:30:00,72.7,71.8,30.04,SSE,150,0.0,0.0,97,0.00,,,0.21,Wunderground v.1.15,2013-06-12 03:30:00,
2013-06-11 23:40:00,72.7,71.8,30.05,SSE,150,0.0,0.0,97,0.00,,,0.21,Wunderground v.1.15,2013-06-12 03:40:00,
2013-06-11 23:45:00,72.7,71.8,30.05,SSE,150,0.0,0.0,97,0.00,,,0.21,Wunderground v.1.15,2013-06-12 03:45:00,
2013-06-11 23:50:00,72.7,71.8,30.05,SSE,150,0.0,0.0,97,0.00,,,0.21,Wunderground v.1.15,2013-06-12 03:50:00,